Roswell, NM

9:30 AM MST on December 07, 2016 (GMT -0700)
Roswell Industrial

Weather History for KROW - September, 2013

Change the Weather History Date:

Monday, September 30, 2013

  Actual Average Record
Temperature  
Mean Temperature 69 °F 67 °F  
Max Temperature 92 °F 81 °F 99 °F (1977)
Min Temperature 46 °F 53 °F 37 °F (1908)
Degree Days  
Heating Degree Days 0 2  
Month to date heating degree days 0 14  
Since 1 July heating degree days 0 16  
Cooling Degree Days 4 3  
Month to date cooling degree days 276 227  
Year to date cooling degree days 2140 1751  
Growing Degree Days 18 (Base 50)    
Moisture  
Dew Point 35 °F    
Average Humidity 43    
Maximum Humidity 76    
Minimum Humidity 9    
Precipitation  
Precipitation 0.00 in 0.04 in 1.59 in (1982)
Month to date precipitation 3.74 1.53  
Year to date precipitation 8.34 10.46  
Sea Level Pressure  
Sea Level Pressure 29.76 in    
Wind  
Wind Speed 4 mph (SW)    
Max Wind Speed 14 mph    
Max Gust Speed 22 mph    
Visibility 10 miles    
Events      
T = Trace of Precipitation, MM = Missing Value Source: NWS Daily Summary

Daily Weather History Graph

Daily Weather History Graph

Search for Another Location

Airport or City:

Trip Planner

Search our weather history database for the weather conditions in past years. The results will help you decide how hot, cold, wet, or windy it might be!

Date:

Astronomy

Sep. 30, 2013 Rise Set
Actual Time 6:51 AM MDT 6:43 PM MDT
Civil Twilight 6:27 AM MDT 7:08 PM MDT
Nautical Twilight 5:58 AM MDT 7:36 PM MDT
Astronomical Twilight 5:29 AM MDT 8:05 PM MDT
Moon 2:42 AM MDT (9/30) 4:05 PM MDT (9/30)
Length of Visible Light 12h 41m
Length of Day
11h 51m
Waning Crescent, 18% of the Moon is Illuminated
Sep 30
Waning Crescent
Oct 4
New
Oct 11
First Quarter
Oct 18
Full
Oct 26
Last Quarter

Hourly Weather History & Observations

Time (MDT) Temp. Dew Point Humidity Pressure Visibility Wind Dir Wind Speed Gust Speed Precip Events Conditions
12:51 AM 57.9 °F 37.9 °F 47% 29.86 in 10.0 mi North 3.5 mph - N/A   Clear
1:51 AM 50.0 °F 37.9 °F 63% 29.86 in 10.0 mi SSW 3.5 mph - N/A   Clear
2:51 AM 50.0 °F 37.9 °F 63% 29.84 in 10.0 mi Calm Calm - N/A   Clear
3:51 AM 48.9 °F 37.9 °F 66% 29.83 in 10.0 mi SSW 3.5 mph - N/A   Clear
4:51 AM 48.9 °F 37.0 °F 64% 29.83 in 10.0 mi SW 3.5 mph - N/A   Clear
5:51 AM 48.0 °F 37.9 °F 68% 29.83 in 10.0 mi Calm Calm - N/A   Clear
6:51 AM 46.9 °F 39.0 °F 74% 29.85 in 10.0 mi Calm Calm - N/A   Clear
7:51 AM 51.1 °F 39.9 °F 66% 29.86 in 10.0 mi Calm Calm - N/A   Clear
8:51 AM 64.0 °F 41.0 °F 43% 29.83 in 10.0 mi SSE 3.5 mph - N/A   Clear
9:51 AM 75.9 °F 35.1 °F 23% 29.80 in 10.0 mi SW 6.9 mph - N/A   Clear
10:51 AM 82.9 °F 34.0 °F 17% 29.78 in 10.0 mi Calm Calm - N/A   Clear
11:51 AM 86.0 °F 30.0 °F 13% 29.76 in 10.0 mi Calm Calm - N/A   Clear
12:51 PM 87.1 °F 27.0 °F 11% 29.73 in 10.0 mi Variable 4.6 mph - N/A   Clear
1:51 PM 88.0 °F 27.0 °F 11% 29.72 in 10.0 mi Variable 4.6 mph - N/A   Clear
2:51 PM 91.0 °F 26.1 °F 10% 29.70 in 10.0 mi Calm Calm - N/A   Clear
3:51 PM 91.0 °F 25.0 °F 9% 29.68 in 10.0 mi West 4.6 mph - N/A   Clear
4:51 PM 90.0 °F 28.9 °F 11% 29.68 in 10.0 mi WSW 3.5 mph - N/A   Clear
5:51 PM 87.1 °F 28.9 °F 12% 29.69 in 10.0 mi SSE 6.9 mph - N/A   Clear
6:51 PM 75.9 °F 39.0 °F 26% 29.72 in 10.0 mi South 8.1 mph - N/A   Clear
7:51 PM 66.9 °F 41.0 °F 39% 29.74 in 10.0 mi SW 6.9 mph - N/A   Clear
8:51 PM 73.0 °F 37.0 °F 27% 29.72 in 10.0 mi West 8.1 mph - N/A   Clear
9:51 PM 69.1 °F 37.9 °F 32% 29.71 in 10.0 mi WSW 9.2 mph - N/A   Clear
10:51 PM 59.0 °F 39.9 °F 49% 29.72 in 10.0 mi WSW 6.9 mph - N/A   Clear
11:51 PM 66.9 °F 34.0 °F 30% 29.68 in 10.0 mi West 10.4 mph - N/A   Clear